Location: Bern�tre
(50.1974°N, 2.0915°E)
Time: 02:17:01
(UTC+00:00)

Cosmos 1603 - Pass Details

Date: 18 September 2020
Orbit: 832 x 858 km, 71.0° (Epoch: 24 October)

Event Time Altitude Azimuth Distance (km) Brightness Sun altitude
Rises 18:20:20 0° 330° (NNW) 3,424 7.5 -4.4°
Reaches altitude 10° 18:22:48 10° 330° (NNW) 2,481 6.7 -4.8°
Maximum altitude 18:28:30 88° 247° (WSW) 850 3.8 -5.7°
Drops below altitude 10° 18:34:08 10° 154° (SSE) 2,447 5.8 -6.6°
Sets 18:36:33 0° 154° (SSE) 3,374 6.5 -7.0°
